SCOUT B DEB, 28795

Orbit data source: Space-Track

SCOUT B DEB, 28795 is space debris in LEO originally from a launch on Tue, 10 Aug 1965 UTC launched from the Wallops Island (WLPIS). Debris objects in space refer to the collection of defunct objects orbiting the Earth. Examples of debris include non-operational satellites, rocket bodies, and fragments generated from explosions, collisions, or faulty payload assembly.

Loading next visibility...
Identifier
28795, 1965-063E
Orbit
LEO
Country
Flag of USUS
Related business
Manufacturer
Unknown
Mission
Spacecraft
Bus & Motor
Unknown
Mass
Unknown
Launch date (UTC)
1965-08-10 (60 years ago)
Launch vehicle
Unknown
Launch site
Wallops Island (WLPIS)
Object type
Payload
Rocket body
Debris
Shape & HBR
Unknown shape, 0.1 m
Radar Cross Section
Small (<0.1 m²)

Expand to show TLE details & history
Last TLE update: 2 months ago

TLE from 2 months ago
0 SCOUT B DEB
1 28795U 65063E   25329.11712082  .00000079  00000-0  80519-3 0  9996
2 28795  69.2244 107.8040 0759657 298.2982 247.3941 11.81776143187532
Epoch: 2025-11-25T02:48Z
TLE epoch observation values (Epoch: 2025-11-25T02:48:39.238Z)
Latitude
1.82253°
Longitude
-179.35535°
Altitude
2,041.301 km
Speed
6.765 km/s
True Right ascension
19h 08m 27s
True Declination
1° 48' 48"
Sunlit
Object was in daylight at epoch
Visualization orbit readout
Latitude
Unknown
Longitude
Unknown
Altitude
Unknown
Speed
Unknown
Apparent Right ascension
Unknown
Apparent Declination
Unknown
Sunlit
N/A
Visualization observer readout
Local Sidereal Time
10:18:00
Azimuth
Unknown
Elevation
Unknown
Doppler factor
Unknown
Orbital elements
Apogee altitude
2,380.163 km
Perigee altitude
1,143.45 km
Semi-major axis
8,139.943 km
Eccentricity
0.07597
Inclination
69.2244°
RAAN
107.804°
Arg. of periapsis
298.2982°
True anomaly
239.66464°
Mean anomaly
247.3941°
Eccentric anomaly
243.49892°
Mean motion
2.95536 °/min
Orbital period
121.81 mins
BSTAR
0.00080519
Loading maneuver chart data...
Computing Atmospheric mass density...
Loading historical data...
Loading historical data...
Loading historical data...
Loading historical data...
Loading historical data...
Loading historical data...
Loading historical data...

Documentation

Showing up to 5 results
|